SCP
0 0 0 0 0 0 0 0 0 0 0 0 0 0 0 0 0 0 0 0 0 0 0 0 0 0 0 0 0 0 0 0 0 0 0 0 0 0 0 0 0 1 0 -0
0 0 0 0 0 0 0 0 0 0 0 0 0 0 -0 0 0 0 0 0 0 0 0 0 0 0 0 0 0 0 0 0 0 0 0 0 0 0 0 0 0 0 0 0
0 0 0 0 0 0 0 0 0 0 0 0 0 0 -0 0 0 0 0 0 0 0 0 0 0 0 0 0 0 0 0 0 0 0 0 0 0 0 0 0 0 0 0 0
0 0 0 0 0 0 0 0 0 0 0 0 0 0 -0 -0 0 0 0 0 0 0 0 0 0 0 0 0 0 0 0 0 0 0 0 0 0 0 0 0 -0 0 0 0
0 0 0 0 0 0 0 0 0 0 0 0 -0 0 0 0 0 0 0 0 0 0 0 0 0 0 0 0 0 0 0 0 0 0 0 0 0 0 0 0 0 0 0 -0
0 0 0 0 0 0 0 0 0 0 0 0 0 0 0 0 0 0 0 0 0 0 0 0 0 0 0 0 0 0 0 0 0 0 0 0 0 0 0 0 0 0 -0 -0
0 0 0 0 0 0 0 0 0 0 0 0 0 0 0 0 0 0 0 0 0 0 0 0 0 0 0 0 0 0 0 0 0 0 0 0 0 0 0 0 0 0 -0 -0
0 0 0 0 0 0 0 0 0 0 0 0 0 0 0 0 0 0 0 0 0 0 0 0 0 0 0 0 0 0 0 0 0 0 0 0 0 0 0 0 0 0 0 -0
0 0 0 0 0 0 0 0 0 0 0 0 0 0 0 0 0 0 0 0 0 0 0 0 0 0 0 0 0 0 0 0 0 0 0 0 -0 -0 0 0 0 0 0 0
0 0 0 0 0 0 0 0 0 0 0 0 0 0 0 0 0 0 0 0 0 0 0 0 0 0 0 0 0 0 0 0 0 0 0 0 0 -0 -0 0 0 0 0 0
0 0 0 0 0 0 0 0 0 0 0 0 0 0 0 0 0 0 0 0 0 0 0 0 0 0 0 0 0 0 0 0 0 0 0 0 0 -0 -0 -0 -0 -0 0 0
0 0 0 0 0 0 0 0 0 0 0 0 0 0 0 0 0 0 0 0 0 0 0 0 0 0 0 0 0 0 0 0 0 0 0 0 0 0 0 -0 -0 -0 0 0
0 0 0 0 0 0 0 0 0 0 0 0 0 0 0 0 0 0 0 0 0 0 0 0 0 0 0 0 0 0 0 0 0 0 0 0 0 0 0 -0 -0 -0 0 0
0 0 0 0 0 0 0 0 0 0 0 0 0 0 0 0 0 0 0 0 0 0 0 0 0 0 0 0 0 0 0 0 0 0 0 0 0 0 0 0 -0 0 0 0
0 0 0 0 0 0 0 0 0 0 0 0 0 0 0 0 0 0 0 0 0 0 0 0 0 0 0 0 0 0 0 0 0 0 0 0 0 0 0 0 -0 0 0 0
0 0 0 0 0 0 0 0 0 0 0 0 0 0 0 0 0 0 0 0 0 0 0 0 0 0 0 0 0 0 0 0 0 0 0 0 0 0 0 0 -0 0 0 0
0 0 0 0 0 0 0 0 0 0 0 0 0 0 0 0 0 0 0 0 0 0 0 0 0 0 0 0 0 0 0 0 0 0 0 0 0 0 0 0 -0 0 0 0
0 0 0 0 0 0 0 0 0 0 0 0 0 0 0 0 0 0 0 0 0 0 0 0 0 0 0 0 0 0 0 0 0 0 0 0 0 0 0 0 0 0 0 0
0 0 0 0 0 0 0 0 0 0 0 0 0 0 0 0 0 0 0 0 0 0 0 0 0 0 0 0 0 0 0 0 0 0 0 0 0 0 0 0 0 0 0 0
0 0 0 0 0 0 0 0 0 0 0 0 0 0 0 0 0 0 0 0 0 0 0 0 0 0 0 0 0 0 0 0 0 0 0 0 0 0 0 0 0 0 0 0
0 0 0 0 0 0 0 0 0 0 0 0 0 0 0 0 0 0 0 0 0 0 0 0 0 0 0 0 0 0 0 0 0 0 0 0 0 0 0 0 0 0 0 0
0 0 0 0 0 0 0 0 0 0 0 0 0 0 0 0 0 0 0 0 0 0 0 0 0 0 0 0 0 0 0 0 0 0 0 0 0 0 0 0 0 0 0 0
0 0 0 0 0 0 0 0 0 0 0 0 0 0 0 0 0 0 0 0 0 0 0 0 0 0 0 0 0 0 0 0 0 0 0 0 0 0 -0 0 0 0 0 0
0 0 0 0 -0 0 0 0 0 0 0 0 0 0 0 0 0 0 0 0 0 0 0 0 0 0 0 0 0 0 0 0 0 0 0 0 0 0 0 0 0 0 0 0
-0 0 -0 -0 0 0 0 0 0 0 0 0 0 0 0 0 0 0 0 0 0 0 0 0 0 0 0 0 0 0 0 0 0 0 0 0 0 0 -0 0 -0 0 -0 -0
-0 0 0 0 0 0 0 0 0 0 0 0 0 0 0 0 0 0 0 0 0 0 0 0 0 0 0 0 0 0 0 0 0 0 0 0 -0 -0 -0 -0 0 0 0 0
Wind_Speed_500mb
31 7 12 24 18 3 5 7 14 14 17 11 17 16 14 23 33 34 27 41 33 23 9 4 6 17 26 36 45 46 50 57 57 64 61 65 72 75 75 71 64 57 57 62
12 17 23 21 8 5 5 7 11 16 18 9 15 20 18 16 23 45 39 47 36 26 15 13 13 21 27 27 34 44 51 55 55 61 68 75 65 76 71 64 65 66 74 69
15 18 15 6 7 8 9 8 12 19 10 11 15 20 34 30 45 48 44 48 36 28 21 11 14 19 29 40 45 44 44 48 52 55 66 68 75 83 81 80 71 65 67 61
19 33 30 14 11 10 10 15 17 9 12 7 12 12 27 32 10 26 47 42 35 30 19 7 9 27 32 33 38 44 53 55 44 52 62 68 74 79 78 81 89 80 77 82
16 20 10 4 7 14 16 14 11 9 12 13 25 10 15 18 16 20 29 49 41 28 19 4 13 23 33 38 43 50 53 50 62 49 56 64 73 70 73 81 93 88 87 91
28 45 12 1 7 10 11 10 17 10 4 8 38 17 17 12 22 27 15 49 41 24 2 5 17 32 44 47 51 55 61 62 61 66 62 62 68 74 77 82 88 90 92 98
17 29 30 12 4 11 8 6 6 6 4 13 9 13 28 12 18 27 27 43 27 8 3 12 26 38 41 42 43 50 56 61 63 64 66 66 63 70 75 78 91 85 94 102
16 31 20 18 17 14 16 19 10 10 6 7 13 11 5 20 38 50 39 23 13 4 10 17 26 30 34 38 46 56 61 64 66 67 68 66 60 63 71 74 84 84 93 101
9 13 32 30 16 17 7 11 12 6 10 4 10 6 6 16 17 24 27 25 16 8 7 14 24 30 36 43 47 56 65 69 75 76 74 71 70 67 64 71 76 90 93 91
13 10 16 7 10 4 7 3 7 3 6 10 10 14 8 12 12 12 11 3 4 1 6 15 21 26 30 35 50 66 67 75 76 68 65 65 71 73 76 73 76 80 92 83
13 12 9 10 10 15 6 4 6 7 9 9 3 11 11 12 16 14 12 22 19 12 6 9 14 24 34 48 63 69 70 70 79 74 72 69 70 73 70 73 76 75 84 77
14 10 10 18 8 24 18 20 18 9 9 9 5 12 11 16 11 5 19 33 11 4 5 9 19 31 44 58 65 67 62 78 69 65 63 72 72 71 65 65 65 68 70 71
11 6 4 13 13 10 19 22 22 11 7 17 11 11 7 10 18 40 30 7 5 14 17 15 23 36 51 51 59 63 71 69 66 63 71 72 72 69 72 64 60 60 62 69
21 9 15 19 6 4 7 14 13 14 11 12 31 32 23 29 24 36 18 4 21 22 17 18 32 48 40 48 54 67 81 80 69 73 69 72 71 69 71 59 55 50 57 65
17 16 19 18 21 30 30 33 30 37 30 26 33 37 33 29 36 8 14 24 22 18 18 28 41 35 53 49 61 74 77 79 64 69 71 75 68 66 67 57 50 44 51 62
9 11 19 25 22 27 35 41 39 36 33 27 33 38 23 37 16 24 24 21 19 17 23 28 37 46 42 51 66 78 82 74 73 74 74 73 68 66 64 60 50 44 45 57
11 3 6 21 21 19 29 32 34 34 31 20 34 14 7 10 15 18 19 22 15 15 26 43 40 38 44 58 70 80 76 76 74 75 75 72 69 66 67 67 54 44 42 45
28 27 9 7 12 23 17 20 28 34 20 11 1 3 12 16 18 18 17 14 9 19 34 36 40 37 48 60 74 75 71 73 74 75 78 76 73 71 71 62 54 48 43 43
38 33 14 17 21 21 22 9 3 4 12 8 4 5 11 17 15 15 13 7 12 30 23 33 24 36 48 64 71 69 71 72 74 77 79 77 73 67 64 64 48 49 45 39
38 38 24 13 19 20 14 25 21 4 10 12 12 12 10 13 4 7 6 18 28 18 27 18 32 41 56 62 68 67 72 73 76 78 77 76 66 61 65 63 50 49 46 44
38 30 35 22 15 13 15 22 28 11 12 24 21 11 3 4 8 13 4 22 17 16 17 30 39 46 54 59 65 66 70 72 76 76 74 71 67 67 56 56 44 45 43 43
35 24 15 11 15 25 34 22 18 14 25 22 14 11 6 4 5 1 18 13 10 18 23 30 36 45 52 56 63 64 67 69 72 71 72 68 66 60 44 38 29 36 44 51
8 6 8 15 11 3 25 19 29 29 19 17 7 4 8 4 4 4 10 6 15 18 22 26 34 40 46 55 61 62 64 67 68 69 69 59 59 48 27 22 25 34 41 45
9 18 6 9 24 20 35 25 25 38 36 22 13 8 6 4 2 3 6 11 13 18 16 28 31 39 42 52 60 58 61 62 63 68 63 53 51 50 49 34 22 41 33 39
1 14 5 15 33 29 28 43 33 32 27 26 23 19 11 6 3 3 5 11 14 18 23 17 27 42 37 49 60 60 58 56 60 64 56 51 49 47 50 50 48 37 40 37
13 10 3 5 9 8 19 10 25 18 16 17 37 20 12 10 9 1 6 12 18 17 10 22 29 33 36 46 57 59 56 52 54 58 53 48 38 45 43 44 40 38 28 25
Wind_Direction_500mb
271 194 229 232 229 205 49 323 308 303 299 318 284 273 272 281 281 263 237 159 157 160 184 231 259 312 315 317 314 309 310 310 306 302 302 304 301 298 295 289 282 282 284 283
291 230 239 254 77 9 320 319 282 286 284 295 325 301 282 251 245 261 218 163 162 164 184 225 300 302 319 327 321 318 315 311 304 298 298 301 302 297 297 292 287 280 274 273
250 256 49 138 236 272 288 247 271 259 310 333 329 291 272 256 252 236 191 167 168 172 193 225 294 298 310 317 310 307 319 320 304 295 295 299 302 295 290 290 287 278 275 268
254 252 253 176 214 244 269 268 276 339 11 280 43 285 294 286 229 154 159 165 171 186 179 228 276 310 321 328 321 312 300 300 318 308 302 302 304 301 288 292 295 291 290 283
262 307 263 218 220 249 239 48 5 0 323 333 274 269 270 250 196 181 173 179 184 160 159 214 305 322 323 314 311 310 307 296 297 310 312 306 309 297 296 294 296 300 294 294
264 279 292 247 3 331 42 18 333 300 219 283 255 197 274 262 204 176 147 152 140 140 99 292 313 329 317 310 311 307 307 308 301 298 298 310 305 304 298 298 297 299 304 295
277 257 259 171 185 273 109 90 323 331 174 225 275 213 229 309 122 129 126 124 125 126 176 315 325 331 309 311 310 315 316 311 307 301 301 298 306 301 298 297 300 297 302 295
270 300 244 180 174 186 199 164 170 232 250 289 293 252 328 86 81 100 108 120 149 159 318 316 334 327 308 311 311 309 311 308 306 305 299 301 300 306 302 297 297 297 293 293
236 257 332 159 143 153 279 198 217 62 336 332 247 282 73 108 111 131 151 165 169 335 328 351 336 312 313 315 312 311 311 306 306 309 305 304 300 293 299 301 297 295 293 301
222 278 265 135 111 264 173 64 53 7 214 252 263 246 183 135 163 132 113 204 201 93 284 313 319 313 315 309 313 315 312 310 317 320 315 311 306 299 287 289 291 293 298 303
141 133 280 354 183 181 169 225 203 159 176 195 310 279 135 110 133 141 207 247 237 198 275 311 322 312 310 315 318 319 317 316 316 314 314 312 309 306 292 282 286 299 302 300
193 156 187 230 273 198 203 197 180 144 239 217 199 265 44 115 123 178 274 294 137 57 110 350 325 311 315 320 318 322 314 320 319 319 316 315 314 311 302 291 286 295 302 304
174 201 66 321 310 256 215 205 206 177 157 211 187 254 238 23 340 310 286 75 19 86 15 358 320 320 322 325 318 318 322 321 318 315 318 317 317 313 309 295 287 292 303 307
172 188 168 197 219 75 256 214 221 202 208 234 236 256 265 295 297 281 288 14 73 33 23 347 325 327 330 323 315 316 322 323 322 315 320 320 321 316 314 301 294 292 302 312
163 209 209 228 245 281 285 278 240 222 227 215 249 248 252 246 250 215 89 65 36 29 3 337 335 324 319 314 313 321 322 323 318 320 324 321 320 321 318 304 295 296 304 317
163 231 201 235 240 260 274 270 265 258 252 245 241 253 239 244 130 87 72 46 58 22 355 342 323 321 319 315 319 322 321 324 324 328 326 324 321 314 314 309 292 295 298 312
304 222 156 243 234 258 266 244 251 256 247 245 252 262 33 59 80 85 74 85 54 4 331 324 328 313 307 315 323 327 330 330 332 330 328 326 323 318 312 307 284 286 284 302
238 234 180 215 186 232 245 220 239 245 237 211 347 37 69 90 49 63 70 69 8 322 320 327 318 305 315 323 326 329 332 334 334 331 330 327 325 315 312 302 283 275 282 288
212 202 226 214 216 268 291 283 46 55 278 230 162 5 63 31 15 96 80 28 327 326 338 328 303 314 319 327 332 335 336 337 336 334 330 327 325 319 316 308 290 266 276 282
224 192 187 206 220 219 195 226 125 81 301 249 186 105 71 23 9 243 266 308 323 338 328 312 313 315 321 334 340 340 339 339 339 337 333 330 326 318 315 304 294 258 272 280
214 193 197 204 209 251 231 130 135 132 222 114 103 104 98 118 168 137 332 333 336 333 328 319 314 321 333 339 343 343 341 343 342 341 337 335 332 326 313 294 286 257 271 281
247 190 195 194 216 249 191 148 163 183 140 143 128 96 56 50 86 14 338 327 335 333 325 322 320 327 331 347 349 346 346 345 347 344 347 345 342 339 322 296 269 261 278 291
221 194 214 175 217 352 169 157 156 163 155 120 105 199 224 222 191 357 330 333 341 337 334 328 326 327 337 353 354 348 348 350 350 355 356 355 352 14 339 335 319 311 296 318
268 13 14 38 280 225 184 181 198 210 192 190 216 280 178 60 117 337 318 343 346 336 335 327 323 330 344 356 355 353 352 352 354 4 360 0 0 21 30 23 357 38 41 17
247 1 289 254 258 231 193 215 196 182 202 206 226 250 168 176 283 293 354 348 338 325 345 322 333 336 347 357 359 357 355 357 359 5 5 1 9 10 31 47 39 49 52 32
179 214 278 260 244 23 317 307 164 140 156 213 223 152 145 166 153 213 351 339 338 359 359 332 332 345 350 355 359 359 1 3 3 3 6 6 6 1 15 33 38 56 56 24
Wind_Speed_850mb
31 7 12 24 18 3 5 7 14 14 17 11 17 16 14 23 33 34 27 41 33 23 9 4 6 17 26 36 45 46 50 57 57 64 61 65 72 75 75 71 64 57 57 62
12 17 23 21 8 5 5 7 11 16 18 9 15 20 18 16 23 45 39 47 36 26 15 13 13 21 27 27 34 44 51 55 55 61 68 75 65 76 71 64 65 66 74 69
15 18 15 6 7 8 9 8 12 19 10 11 15 20 34 30 45 48 44 48 36 28 21 11 14 19 29 40 45 44 44 48 52 55 66 68 75 83 81 80 71 65 67 61
19 33 30 14 11 10 10 15 17 9 12 7 12 12 27 32 10 26 47 42 35 30 19 7 9 27 32 33 38 44 53 55 44 52 62 68 74 79 78 81 89 80 77 82
16 20 10 4 7 14 16 14 11 9 12 13 25 10 15 18 16 20 29 49 41 28 19 4 13 23 33 38 43 50 53 50 62 49 56 64 73 70 73 81 93 88 87 91
28 45 12 1 7 10 11 10 17 10 4 8 38 17 17 12 22 27 15 49 41 24 2 5 17 32 44 47 51 55 61 62 61 66 62 62 68 74 77 82 88 90 92 98
17 29 30 12 4 11 8 6 6 6 4 13 9 13 28 12 18 27 27 43 27 8 3 12 26 38 41 42 43 50 56 61 63 64 66 66 63 70 75 78 91 85 94 102
16 31 20 18 17 14 16 19 10 10 6 7 13 11 5 20 38 50 39 23 13 4 10 17 26 30 34 38 46 56 61 64 66 67 68 66 60 63 71 74 84 84 93 101
9 13 32 30 16 17 7 11 12 6 10 4 10 6 6 16 17 24 27 25 16 8 7 14 24 30 36 43 47 56 65 69 75 76 74 71 70 67 64 71 76 90 93 91
13 10 16 7 10 4 7 3 7 3 6 10 10 14 8 12 12 12 11 3 4 1 6 15 21 26 30 35 50 66 67 75 76 68 65 65 71 73 76 73 76 80 92 83
13 12 9 10 10 15 6 4 6 7 9 9 3 11 11 12 16 14 12 22 19 12 6 9 14 24 34 48 63 69 70 70 79 74 72 69 70 73 70 73 76 75 84 77
14 10 10 18 8 24 18 20 18 9 9 9 5 12 11 16 11 5 19 33 11 4 5 9 19 31 44 58 65 67 62 78 69 65 63 72 72 71 65 65 65 68 70 71
11 6 4 13 13 10 19 22 22 11 7 17 11 11 7 10 18 40 30 7 5 14 17 15 23 36 51 51 59 63 71 69 66 63 71 72 72 69 72 64 60 60 62 69
21 9 15 19 6 4 7 14 13 14 11 12 31 32 23 29 24 36 18 4 21 22 17 18 32 48 40 48 54 67 81 80 69 73 69 72 71 69 71 59 55 50 57 65
17 16 19 18 21 30 30 33 30 37 30 26 33 37 33 29 36 8 14 24 22 18 18 28 41 35 53 49 61 74 77 79 64 69 71 75 68 66 67 57 50 44 51 62
9 11 19 25 22 27 35 41 39 36 33 27 33 38 23 37 16 24 24 21 19 17 23 28 37 46 42 51 66 78 82 74 73 74 74 73 68 66 64 60 50 44 45 57
11 3 6 21 21 19 29 32 34 34 31 20 34 14 7 10 15 18 19 22 15 15 26 43 40 38 44 58 70 80 76 76 74 75 75 72 69 66 67 67 54 44 42 45
28 27 9 7 12 23 17 20 28 34 20 11 1 3 12 16 18 18 17 14 9 19 34 36 40 37 48 60 74 75 71 73 74 75 78 76 73 71 71 62 54 48 43 43
38 33 14 17 21 21 22 9 3 4 12 8 4 5 11 17 15 15 13 7 12 30 23 33 24 36 48 64 71 69 71 72 74 77 79 77 73 67 64 64 48 49 45 39
38 38 24 13 19 20 14 25 21 4 10 12 12 12 10 13 4 7 6 18 28 18 27 18 32 41 56 62 68 67 72 73 76 78 77 76 66 61 65 63 50 49 46 44
38 30 35 22 15 13 15 22 28 11 12 24 21 11 3 4 8 13 4 22 17 16 17 30 39 46 54 59 65 66 70 72 76 76 74 71 67 67 56 56 44 45 43 43
35 24 15 11 15 25 34 22 18 14 25 22 14 11 6 4 5 1 18 13 10 18 23 30 36 45 52 56 63 64 67 69 72 71 72 68 66 60 44 38 29 36 44 51
8 6 8 15 11 3 25 19 29 29 19 17 7 4 8 4 4 4 10 6 15 18 22 26 34 40 46 55 61 62 64 67 68 69 69 59 59 48 27 22 25 34 41 45
9 18 6 9 24 20 35 25 25 38 36 22 13 8 6 4 2 3 6 11 13 18 16 28 31 39 42 52 60 58 61 62 63 68 63 53 51 50 49 34 22 41 33 39
1 14 5 15 33 29 28 43 33 32 27 26 23 19 11 6 3 3 5 11 14 18 23 17 27 42 37 49 60 60 58 56 60 64 56 51 49 47 50 50 48 37 40 37
13 10 3 5 9 8 19 10 25 18 16 17 37 20 12 10 9 1 6 12 18 17 10 22 29 33 36 46 57 59 56 52 54 58 53 48 38 45 43 44 40 38 28 25
Wind_Direction_850mb
271 194 229 232 229 205 49 323 308 303 299 318 284 273 272 281 281 263 237 159 157 160 184 231 259 312 315 317 314 309 310 310 306 302 302 304 301 298 295 289 282 282 284 283
291 230 239 254 77 9 320 319 282 286 284 295 325 301 282 251 245 261 218 163 162 164 184 225 300 302 319 327 321 318 315 311 304 298 298 301 302 297 297 292 287 280 274 273
250 256 49 138 236 272 288 247 271 259 310 333 329 291 272 256 252 236 191 167 168 172 193 225 294 298 310 317 310 307 319 320 304 295 295 299 302 295 290 290 287 278 275 268
254 252 253 176 214 244 269 268 276 339 11 280 43 285 294 286 229 154 159 165 171 186 179 228 276 310 321 328 321 312 300 300 318 308 302 302 304 301 288 292 295 291 290 283
262 307 263 218 220 249 239 48 5 0 323 333 274 269 270 250 196 181 173 179 184 160 159 214 305 322 323 314 311 310 307 296 297 310 312 306 309 297 296 294 296 300 294 294
264 279 292 247 3 331 42 18 333 300 219 283 255 197 274 262 204 176 147 152 140 140 99 292 313 329 317 310 311 307 307 308 301 298 298 310 305 304 298 298 297 299 304 295
277 257 259 171 185 273 109 90 323 331 174 225 275 213 229 309 122 129 126 124 125 126 176 315 325 331 309 311 310 315 316 311 307 301 301 298 306 301 298 297 300 297 302 295
270 300 244 180 174 186 199 164 170 232 250 289 293 252 328 86 81 100 108 120 149 159 318 316 334 327 308 311 311 309 311 308 306 305 299 301 300 306 302 297 297 297 293 293
236 257 332 159 143 153 279 198 217 62 336 332 247 282 73 108 111 131 151 165 169 335 328 351 336 312 313 315 312 311 311 306 306 309 305 304 300 293 299 301 297 295 293 301
222 278 265 135 111 264 173 64 53 7 214 252 263 246 183 135 163 132 113 204 201 93 284 313 319 313 315 309 313 315 312 310 317 320 315 311 306 299 287 289 291 293 298 303
141 133 280 354 183 181 169 225 203 159 176 195 310 279 135 110 133 141 207 247 237 198 275 311 322 312 310 315 318 319 317 316 316 314 314 312 309 306 292 282 286 299 302 300
193 156 187 230 273 198 203 197 180 144 239 217 199 265 44 115 123 178 274 294 137 57 110 350 325 311 315 320 318 322 314 320 319 319 316 315 314 311 302 291 286 295 302 304
174 201 66 321 310 256 215 205 206 177 157 211 187 254 238 23 340 310 286 75 19 86 15 358 320 320 322 325 318 318 322 321 318 315 318 317 317 313 309 295 287 292 303 307
172 188 168 197 219 75 256 214 221 202 208 234 236 256 265 295 297 281 288 14 73 33 23 347 325 327 330 323 315 316 322 323 322 315 320 320 321 316 314 301 294 292 302 312
163 209 209 228 245 281 285 278 240 222 227 215 249 248 252 246 250 215 89 65 36 29 3 337 335 324 319 314 313 321 322 323 318 320 324 321 320 321 318 304 295 296 304 317
163 231 201 235 240 260 274 270 265 258 252 245 241 253 239 244 130 87 72 46 58 22 355 342 323 321 319 315 319 322 321 324 324 328 326 324 321 314 314 309 292 295 298 312
304 222 156 243 234 258 266 244 251 256 247 245 252 262 33 59 80 85 74 85 54 4 331 324 328 313 307 315 323 327 330 330 332 330 328 326 323 318 312 307 284 286 284 302
238 234 180 215 186 232 245 220 239 245 237 211 347 37 69 90 49 63 70 69 8 322 320 327 318 305 315 323 326 329 332 334 334 331 330 327 325 315 312 302 283 275 282 288
212 202 226 214 216 268 291 283 46 55 278 230 162 5 63 31 15 96 80 28 327 326 338 328 303 314 319 327 332 335 336 337 336 334 330 327 325 319 316 308 290 266 276 282
224 192 187 206 220 219 195 226 125 81 301 249 186 105 71 23 9 243 266 308 323 338 328 312 313 315 321 334 340 340 339 339 339 337 333 330 326 318 315 304 294 258 272 280
214 193 197 204 209 251 231 130 135 132 222 114 103 104 98 118 168 137 332 333 336 333 328 319 314 321 333 339 343 343 341 343 342 341 337 335 332 326 313 294 286 257 271 281
247 190 195 194 216 249 191 148 163 183 140 143 128 96 56 50 86 14 338 327 335 333 325 322 320 327 331 347 349 346 346 345 347 344 347 345 342 339 322 296 269 261 278 291
221 194 214 175 217 352 169 157 156 163 155 120 105 199 224 222 191 357 330 333 341 337 334 328 326 327 337 353 354 348 348 350 350 355 356 355 352 14 339 335 319 311 296 318
268 13 14 38 280 225 184 181 198 210 192 190 216 280 178 60 117 337 318 343 346 336 335 327 323 330 344 356 355 353 352 352 354 4 360 0 0 21 30 23 357 38 41 17
247 1 289 254 258 231 193 215 196 182 202 206 226 250 168 176 283 293 354 348 338 325 345 322 333 336 347 357 359 357 355 357 359 5 5 1 9 10 31 47 39 49 52 32
179 214 278 260 244 23 317 307 164 140 156 213 223 152 145 166 153 213 351 339 338 359 359 332 332 345 350 355 359 359 1 3 3 3 6 6 6 1 15 33 38 56 56 24